EST,Max TemperatureF,Mean TemperatureF,Min TemperatureF,Max Dew PointF,MeanDew PointF,Min DewpointF,Max Humidity, Mean Humidity, Min Humidity, Max Sea Level PressureIn, Mean Sea Level PressureIn, Min Sea Level PressureIn, Max VisibilityMiles, Mean VisibilityMiles, Min VisibilityMiles, Max Wind SpeedMPH, Mean Wind SpeedMPH, Max Gust SpeedMPH,PrecipitationIn, CloudCover, Events, WindDirDegrees
2011-12-1,46,38,31,32,24,17,75,56,33,30.30,30.09,29.87,10,10,10,16,10,,0.00,1,Rain,332
2011-12-2,48,37,26,31,26,22,88,64,40,30.49,30.34,30.25,10,9,2,12,3,,0.00,2,,291
2011-12-3,43,35,26,27,25,22,88,70,47,30.71,30.64,30.51,10,10,10,7,4,,0.00,0,,324
2011-12-4,52,38,24,37,32,22,96,81,54,30.63,30.50,30.38,10,10,5,7,2,17,0.00,1,,158
2011-12-5,59,44,30,47,36,28,100,91,60,30.38,30.32,30.20,10,5,0,6,1,,0.00,1,Fog,154
2011-12-6,63,56,48,56,53,47,100,93,72,30.19,30.00,29.90,10,6,1,7,3,,0.07,6,Rain,147
2011-12-7,55,48,41,55,47,39,100,95,87,29.90,29.80,29.54,10,4,0,8,3,,1.34,7,Fog-Rain,64
2011-12-8,41,36,32,40,31,21,96,76,47,30.29,29.74,29.36,10,7,2,31,12,41,0.55,4,Rain,324
2011-12-9,46,38,29,30,28,25,92,75,48,30.35,30.28,30.21,10,10,5,12,1,,0.00,2,,235
2011-12-10,41,32,24,31,22,6,96,69,27,30.45,30.27,30.17,10,10,8,16,3,22,0.00,1,,312
2011-12-11,36,28,21,21,17,12,85,63,37,30.63,30.57,30.47,10,10,10,6,1,,0.00,1,,298
2011-12-12,48,36,24,20,16,10,85,55,21,30.57,30.49,30.40,10,10,5,5,0,,0.00,0,,160
2011-12-13,46,33,20,26,20,17,92,63,32,30.39,30.34,30.29,10,8,1,7,1,,0.00,0,,3
2011-12-14,39,34,28,30,29,26,92,77,65,30.45,30.40,30.35,10,9,1,6,1,,0.00,6,,331
2011-12-15,52,42,31,46,38,29,93,79,69,30.32,29.99,29.68,10,9,2,10,4,,0.05,6,Rain,169
2011-12-16,52,44,36,47,31,25,83,61,43,30.08,29.88,29.63,10,8,2,28,10,71,0.10,3,Rain,293
2011-12-17,37,30,22,28,19,6,89,61,38,30.19,30.10,30.03,10,10,10,21,6,38,0.00,1,,341
2011-12-18,25,18,11,9,5,-7,80,57,25,30.32,30.26,30.19,10,10,10,17,8,21,0.00,0,,343
2011-12-19,41,26,10,28,17,6,84,63,47,30.28,30.05,29.84,10,9,2,14,2,25,0.00,2,,199
2011-12-20,43,32,21,32,20,9,78,59,32,30.24,30.09,29.86,10,10,9,15,4,32,0.00,2,,338
2011-12-21,36,30,23,36,29,17,100,85,62,30.22,29.87,29.61,10,6,1,6,0,,0.09,7,Rain-Thunderstorm,330
2011-12-22,52,44,35,46,37,34,100,75,50,30.09,29.85,29.59,10,6,1,14,4,,0.09,4,Rain,289
2011-12-23,41,36,30,40,35,21,100,92,69,30.20,29.99,29.93,10,4,1,18,2,28,0.81,7,Rain-Snow,330
2011-12-24,29,22,15,18,7,-4,77,53,28,30.52,30.42,30.21,10,10,10,13,8,,0.00,0,,346
2011-12-25,31,22,12,23,15,7,88,74,63,30.52,30.23,29.88,10,10,10,7,2,,0.00,3,Snow,50
2011-12-26,39,31,23,27,21,17,91,72,40,30.26,30.08,29.86,10,10,10,20,4,45,0.00,1,,325
2011-12-27,55,38,22,53,36,19,96,83,52,30.17,29.72,29.30,10,7,1,15,3,23,0.26,5,Rain,146
2011-12-28,55,41,26,54,36,10,94,74,47,29.65,29.34,29.25,10,8,1,21,9,51,0.16,4,Rain,276
2011-12-29,32,26,21,9,-1,-11,51,33,16,30.03,29.86,29.65,10,10,10,18,11,29,0.00,0,,294
2011-12-30,32,27,22,21,17,12,72,62,52,30.14,30.10,30.05,10,10,10,6,0,,0.00,6,,345
2011-12-31,36,33,30,36,30,22,100,93,69,30.09,29.94,29.83,10,3,0,9,2,,0.00,6,Fog-Rain,329